Read MPEC 2008-C100
Read MPEC 2008-C102
M.P.E.C. 2008-C101 Issued 2008 Feb. 14, 20:09 UT
The Minor Planet Electronic Circulars contain information on unusual
minor planets and routine data on comets. They are published
on behalf of Commission 20 of the International Astronomical Union by the
Minor Planet Center, Smithsonian Astrophysical Observatory,
Cambridge, MA 02138, U.S.A.
Prepared using the Tamkin Foundation Computer Network
MPC@CFA.HARVARD.EDU
URL http://www.cfa.harvard.edu/iau/mpc.html ISSN 1523-6714
2008 CR118
Observations:
K08CB8R* C2008 02 10.35150 11 08 25.45 +09 48 28.1 20.3 V EC101691
K08CB8R C2008 02 10.36913 11 08 24.52 +09 48 37.2 20.8 V EC101691
K08CB8R C2008 02 10.38678 11 08 23.48 +09 48 47.7 20.8 V EC101691
K08CB8R C2008 02 12.33920 11 06 35.18 +10 08 30.5 20.7 V EC101691
K08CB8R C2008 02 12.35683 11 06 34.11 +10 08 41.4 20.8 V EC101691
K08CB8R C2008 02 12.37446 11 06 32.99 +10 08 52.9 20.7 V EC101691
K08CB8R C2008 02 13.34058 11 05 35.62 +10 19 02.8 20.9 V EC101291
K08CB8R C2008 02 13.34453 11 05 35.38 +10 19 05.4 20.9 V EC101291
K08CB8R C2008 02 13.34881 11 05 35.09 +10 19 07.6 20.6 V EC101291
Observer details:
291 LPL/Spacewatch II. Observer R. S. McMillan. 1.8-m f/2.7 reflector + CCD.
691 Steward Observatory, Kitt Peak. Observers M. T. Read, R. S. McMillan.
0.9-m f/3 reflector + CCD.
Orbital elements:
2008 CR118 PHA, Earth MOID = 0.0328 AU
Epoch 2007 Oct. 27.0 TT = JDT 2454400.5 MPC
M 256.29517 (2000.0) P Q
n 0.38011828 Peri. 156.26457 +0.14860462 +0.98711950
a 1.8873693 Node 122.23303 -0.91814289 +0.15998377
e 0.5363330 Incl. 4.01725 -0.36732859 -0.00053752
P 2.59 H 18.6 G 0.15 U 9
Residuals in seconds of arc
080210 691 0.3- 0.8+ 080212 691 0.1+ 0.1- 080213 291 0.0 0.1+
080210 691 0.5+ 0.5- 080212 691 0.2+ 0.2- 080213 291 0.1+ 0.2+
080210 691 0.2- 0.4- 080212 691 0.3- 0.3+ 080213 291 0.1- 0.3-
Ephemeris:
2008 CR118 a,e,i = 1.89, 0.54, 4 q = 0.8751
Date TT R. A. (2000) Decl. Delta r Elong. Phase V
2008 02 14 11 04.92 +10 26.2 0.973 1.933 160.8 9.7 20.6
2008 02 24 10 52.39 +12 26.9 0.880 1.866 173.0 3.7 20.0
2008 03 05 10 36.29 +14 43.5 0.814 1.797 169.0 6.0 19.9
2008 03 15 10 18.46 +16 57.7 0.773 1.726 155.0 14.1 20.0
2008 03 25 10 01.54 +18 50.4 0.754 1.652 140.8 22.4 20.2
2008 04 04 09 47.99 +20 10.0 0.753 1.577 127.6 30.2 20.3
2008 04 14 09 39.49 +20 53.4 0.761 1.499 115.8 37.0 20.4
2008 04 24 09 36.59 +21 03.6 0.771 1.421 105.4 43.0 20.5
2008 05 04 09 39.05 +20 45.4 0.779 1.341 96.4 48.3 20.5
2008 05 14 09 46.36 +20 01.8 0.780 1.262 88.6 53.2 20.5
2008 05 24 09 57.81 +18 55.2 0.771 1.184 82.0 57.9 20.5
2008 06 03 10 12.74 +17 26.2 0.749 1.109 76.3 62.7 20.4
2008 06 13 10 30.66 +15 34.1 0.713 1.039 71.4 68.0 20.3
2008 06 23 10 51.02 +13 18.1 0.663 0.977 67.4 73.8 20.2
2008 07 03 11 13.46 +10 36.2 0.601 0.926 63.9 80.4 20.1
2008 07 13 11 37.81 +07 23.9 0.528 0.892 61.2 87.5 20.0
Sonia Keys (C) Copyright 2008 MPC M.P.E.C. 2008-C101
Read MPEC 2008-C100
Read MPEC 2008-C102
Our Web policy. Index to the CBAT/MPC/ICQ pages.